Location: ??
(35.5052°N, 139.7262°E)
Time: 02:57:26
(UTC+00:00)

Cosmos 1346 Rocket - Visible Passes

Search period start: 23 October 2021 00:00
Search period end: 02 November 2021 00:00
Orbit: 530 x 547 km, 81.2° (Epoch: 22 October)

Date Brightness Start Highest point End Pass type
(mag) Time Alt. Az. Time Alt. Az. Time Alt. Az.
23 Oct 6.0 17:59:03 13° E 17:59:03 13° E 18:00:23 10° ENE visible
23 Oct 3.3 19:34:39 35° WNW 19:34:39 35° WNW 19:38:15 10° N visible
24 Oct 4.3 19:28:29 22° NNW 19:28:29 22° NNW 19:30:15 10° N visible
25 Oct 5.1 19:21:52 12° NNW 19:21:52 12° NNW 19:22:15 10° N visible
